Year,Month,Day,Hour,Minute,Value (Times are PST for temperature in C)
2010,04,14,00,00,6.10
2010,04,14,00,01,6.10
2010,04,14,00,02,6.10
2010,04,14,00,03,6.10
2010,04,14,00,04,6.10
2010,04,14,00,05,6.10
2010,04,14,00,06,6.10
2010,04,14,00,07,6.10
2010,04,14,00,08,6.10
2010,04,14,00,09,6.10
2010,04,14,00,10,6.10
2010,04,14,00,11,6.00
2010,04,14,00,12,6.00
2010,04,14,00,13,6.00
2010,04,14,00,14,5.90
2010,04,14,00,15,5.90
2010,04,14,00,16,5.90
2010,04,14,00,17,5.90
2010,04,14,00,18,5.90
2010,04,14,00,19,5.80
2010,04,14,00,20,5.80
2010,04,14,00,21,5.80
2010,04,14,00,22,5.80
2010,04,14,00,23,5.80
2010,04,14,00,24,5.70
2010,04,14,00,25,5.70
2010,04,14,00,26,5.70
2010,04,14,00,27,5.70
2010,04,14,00,28,5.70
2010,04,14,00,29,5.70
2010,04,14,00,30,5.70
2010,04,14,00,31,5.70
2010,04,14,00,32,5.70
2010,04,14,00,33,5.60
2010,04,14,00,34,5.60
2010,04,14,00,35,5.60
2010,04,14,00,36,5.60
2010,04,14,00,37,5.60
2010,04,14,00,38,5.60
2010,04,14,00,39,5.50
2010,04,14,00,40,5.50
2010,04,14,00,41,5.50
2010,04,14,00,42,5.50
2010,04,14,00,43,5.50
2010,04,14,00,44,5.50
2010,04,14,00,45,5.50
2010,04,14,00,46,5.50
2010,04,14,00,47,5.40
2010,04,14,00,48,5.40
2010,04,14,00,49,5.40
2010,04,14,00,50,5.40
2010,04,14,00,51,5.40
2010,04,14,00,52,5.40
2010,04,14,00,53,5.40
2010,04,14,00,54,5.40
2010,04,14,00,55,5.40
2010,04,14,00,56,5.40
2010,04,14,00,57,5.40
2010,04,14,00,58,5.40
2010,04,14,00,59,5.40
2010,04,14,01,00,5.40
2010,04,14,01,01,5.40
2010,04,14,01,02,5.40
2010,04,14,01,03,5.40
2010,04,14,01,04,5.40
2010,04,14,01,05,5.30
2010,04,14,01,06,5.30
2010,04,14,01,07,5.30
2010,04,14,01,08,5.30
2010,04,14,01,09,5.30
2010,04,14,01,10,5.30
2010,04,14,01,11,5.30
2010,04,14,01,12,5.30
2010,04,14,01,13,5.30
2010,04,14,01,14,5.30
2010,04,14,01,15,5.30
2010,04,14,01,16,5.30
2010,04,14,01,17,5.40
2010,04,14,01,18,5.40
2010,04,14,01,19,5.40
2010,04,14,01,20,5.40
2010,04,14,01,21,5.40
2010,04,14,01,22,5.40
2010,04,14,01,23,5.40
2010,04,14,01,24,5.40
2010,04,14,01,25,5.40
2010,04,14,01,26,5.50
2010,04,14,01,27,5.50
2010,04,14,01,28,5.50
2010,04,14,01,29,5.60
2010,04,14,01,30,5.60
2010,04,14,01,31,5.60
2010,04,14,01,32,5.60
2010,04,14,01,33,5.60
2010,04,14,01,34,5.60
2010,04,14,01,35,5.60
2010,04,14,01,36,5.60
2010,04,14,01,37,5.60
2010,04,14,01,38,5.60
2010,04,14,01,39,5.60
2010,04,14,01,40,5.60
2010,04,14,01,41,5.60
2010,04,14,01,42,5.50
2010,04,14,01,43,5.50
2010,04,14,01,44,5.40
2010,04,14,01,45,5.40
2010,04,14,01,46,5.40
2010,04,14,01,47,5.40
2010,04,14,01,48,5.40
2010,04,14,01,49,5.40
2010,04,14,01,50,5.30
2010,04,14,01,51,5.30
2010,04,14,01,52,5.30
2010,04,14,01,53,5.30
2010,04,14,01,54,5.30
2010,04,14,01,55,5.30
2010,04,14,01,56,5.30
2010,04,14,01,57,5.30
2010,04,14,01,58,5.30
2010,04,14,01,59,5.30
2010,04,14,02,00,5.30
2010,04,14,02,01,5.30
2010,04,14,02,02,5.30
2010,04,14,02,03,5.30
2010,04,14,02,04,5.30
2010,04,14,02,05,5.40
2010,04,14,02,06,5.40
2010,04,14,02,07,5.40
2010,04,14,02,08,5.40
2010,04,14,02,09,5.40
2010,04,14,02,10,5.40
2010,04,14,02,11,5.40
2010,04,14,02,12,5.40
2010,04,14,02,13,5.40
2010,04,14,02,14,5.30
2010,04,14,02,15,5.30
2010,04,14,02,16,5.30
2010,04,14,02,17,5.30
2010,04,14,02,18,5.30
2010,04,14,02,19,5.30
2010,04,14,02,20,5.30
2010,04,14,02,21,5.30
2010,04,14,02,22,5.30
2010,04,14,02,23,5.30
2010,04,14,02,24,5.30
2010,04,14,02,25,5.30
2010,04,14,02,26,5.30
2010,04,14,02,27,5.30
2010,04,14,02,28,5.30
2010,04,14,02,29,5.30
2010,04,14,02,30,5.30
2010,04,14,02,31,5.30
2010,04,14,02,32,5.30
2010,04,14,02,33,5.30
2010,04,14,02,34,5.30
2010,04,14,02,35,5.30
2010,04,14,02,36,5.20
2010,04,14,02,37,5.20
2010,04,14,02,38,5.20
2010,04,14,02,39,5.20
2010,04,14,02,40,5.20
2010,04,14,02,41,5.10
2010,04,14,02,42,5.10
2010,04,14,02,43,5.10
2010,04,14,02,44,5.10
2010,04,14,02,45,5.10
2010,04,14,02,46,5.10
2010,04,14,02,47,5.10
2010,04,14,02,48,5.10
2010,04,14,02,49,5.10
2010,04,14,02,50,5.00
2010,04,14,02,51,5.00
2010,04,14,02,52,4.90
2010,04,14,02,53,4.90
2010,04,14,02,54,4.90
2010,04,14,02,55,4.80
2010,04,14,02,56,4.80
2010,04,14,02,57,4.80
2010,04,14,02,58,4.80
2010,04,14,02,59,4.80
2010,04,14,03,00,4.80
2010,04,14,03,01,4.80
2010,04,14,03,02,4.80
2010,04,14,03,03,4.70
2010,04,14,03,04,4.70
2010,04,14,03,05,4.70
2010,04,14,03,06,4.70
2010,04,14,03,07,4.70
2010,04,14,03,08,4.60
2010,04,14,03,09,4.60
2010,04,14,03,10,4.60
2010,04,14,03,11,4.60
2010,04,14,03,12,4.60
2010,04,14,03,13,4.60
2010,04,14,03,14,4.60
2010,04,14,03,15,4.60
2010,04,14,03,16,4.60
2010,04,14,03,17,4.60
2010,04,14,03,18,4.60
2010,04,14,03,19,4.60
2010,04,14,03,20,4.60
2010,04,14,03,21,4.60
2010,04,14,03,22,4.50
2010,04,14,03,23,4.50
2010,04,14,03,24,4.50
2010,04,14,03,25,4.50
2010,04,14,03,26,4.50
2010,04,14,03,27,4.50
2010,04,14,03,28,4.40
2010,04,14,03,29,4.40
2010,04,14,03,30,4.40
2010,04,14,03,31,4.40
2010,04,14,03,32,4.40
2010,04,14,03,33,4.40
2010,04,14,03,34,4.40
2010,04,14,03,35,4.40
2010,04,14,03,36,4.30
2010,04,14,03,37,4.30
2010,04,14,03,38,4.30
2010,04,14,03,39,4.30
2010,04,14,03,40,4.30
2010,04,14,03,41,4.30
2010,04,14,03,42,4.30
2010,04,14,03,43,4.30
2010,04,14,03,44,4.30
2010,04,14,03,45,4.30
2010,04,14,03,46,4.30
2010,04,14,03,47,4.30
2010,04,14,03,48,4.30
2010,04,14,03,49,4.20
2010,04,14,03,50,4.10
2010,04,14,03,51,4.10
2010,04,14,03,52,4.00
2010,04,14,03,53,3.90
2010,04,14,03,54,3.90
2010,04,14,03,55,3.90
2010,04,14,03,56,3.90
2010,04,14,03,57,3.80
2010,04,14,03,58,3.80
2010,04,14,03,59,3.80
2010,04,14,04,00,3.80
2010,04,14,04,01,3.80
2010,04,14,04,02,3.80
2010,04,14,04,03,3.80
2010,04,14,04,04,3.80
2010,04,14,04,05,3.80
2010,04,14,04,06,3.80
2010,04,14,04,07,3.90
2010,04,14,04,08,3.90
2010,04,14,04,09,3.90
2010,04,14,04,10,3.90
2010,04,14,04,11,4.00
2010,04,14,04,12,4.00
2010,04,14,04,13,4.10
2010,04,14,04,14,4.10
2010,04,14,04,15,4.10
2010,04,14,04,16,4.10
2010,04,14,04,17,4.10
2010,04,14,04,18,4.10
2010,04,14,04,19,4.10
2010,04,14,04,20,4.10
2010,04,14,04,21,4.10
2010,04,14,04,22,4.20
2010,04,14,04,23,4.20
2010,04,14,04,24,4.20
2010,04,14,04,25,4.20
2010,04,14,04,26,4.20
2010,04,14,04,27,4.20
2010,04,14,04,28,4.20
2010,04,14,04,29,4.20
2010,04,14,04,30,4.20
2010,04,14,04,31,4.20
2010,04,14,04,32,4.10
2010,04,14,04,33,4.10
2010,04,14,04,34,4.10
2010,04,14,04,35,4.10
2010,04,14,04,36,4.10
2010,04,14,04,37,4.10
2010,04,14,04,38,4.20
2010,04,14,04,39,4.20
2010,04,14,04,40,4.20
2010,04,14,04,41,4.20
2010,04,14,04,42,4.20
2010,04,14,04,43,4.30
2010,04,14,04,44,4.30
2010,04,14,04,45,4.30
2010,04,14,04,46,4.30
2010,04,14,04,47,4.30
2010,04,14,04,48,4.30
2010,04,14,04,49,4.30
2010,04,14,04,50,4.30
2010,04,14,04,51,4.30
2010,04,14,04,52,4.30
2010,04,14,04,53,4.30
2010,04,14,04,54,4.30
2010,04,14,04,55,4.30
2010,04,14,04,56,4.30
2010,04,14,04,57,4.30
2010,04,14,04,58,4.30
2010,04,14,04,59,4.30
2010,04,14,05,00,4.30
2010,04,14,05,01,4.30
2010,04,14,05,02,4.30
2010,04,14,05,03,4.30
2010,04,14,05,04,4.30
2010,04,14,05,05,4.30
2010,04,14,05,06,4.30
2010,04,14,05,07,4.20
2010,04,14,05,08,4.20
2010,04,14,05,09,4.20
2010,04,14,05,10,4.20
2010,04,14,05,11,4.20
2010,04,14,05,12,4.30
2010,04,14,05,13,4.30
2010,04,14,05,14,4.30
2010,04,14,05,15,4.40
2010,04,14,05,16,4.40
2010,04,14,05,17,4.40
2010,04,14,05,18,4.50
2010,04,14,05,19,4.50
2010,04,14,05,20,4.50
2010,04,14,05,21,4.60
2010,04,14,05,22,4.60
2010,04,14,05,23,4.60
2010,04,14,05,24,4.60
2010,04,14,05,25,4.60
2010,04,14,05,26,4.50
2010,04,14,05,27,4.50
2010,04,14,05,28,4.50
2010,04,14,05,29,4.50
2010,04,14,05,30,4.40
2010,04,14,05,31,4.40
2010,04,14,05,32,4.40
2010,04,14,05,33,4.40
2010,04,14,05,34,4.40
2010,04,14,05,35,4.40
2010,04,14,05,36,4.30
2010,04,14,05,37,4.40
2010,04,14,05,38,4.40
2010,04,14,05,39,4.40
2010,04,14,05,40,4.40
2010,04,14,05,41,4.40
2010,04,14,05,42,4.40
2010,04,14,05,43,4.40
2010,04,14,05,44,4.40
2010,04,14,05,45,4.40
2010,04,14,05,46,4.40
2010,04,14,05,47,4.40
2010,04,14,05,48,4.40
2010,04,14,05,49,4.40
2010,04,14,05,50,4.40
2010,04,14,05,51,4.40
2010,04,14,05,52,4.30
2010,04,14,05,53,4.40
2010,04,14,05,54,4.40
2010,04,14,05,55,4.30
2010,04,14,05,56,4.30
2010,04,14,05,57,4.30
2010,04,14,05,58,4.30
2010,04,14,05,59,4.40
2010,04,14,06,00,4.40
2010,04,14,06,01,4.40
2010,04,14,06,02,4.40
2010,04,14,06,03,4.40
2010,04,14,06,04,4.40
2010,04,14,06,05,4.40
2010,04,14,06,06,4.40
2010,04,14,06,07,4.40
2010,04,14,06,08,4.40
2010,04,14,06,09,4.40
2010,04,14,06,10,4.40
2010,04,14,06,11,4.40
2010,04,14,06,12,4.50
2010,04,14,06,13,4.50
2010,04,14,06,14,4.50
2010,04,14,06,15,4.50
2010,04,14,06,16,4.60
2010,04,14,06,17,4.60
2010,04,14,06,18,4.60
2010,04,14,06,19,4.60
2010,04,14,06,20,4.60
2010,04,14,06,21,4.60
2010,04,14,06,22,4.50
2010,04,14,06,23,4.50
2010,04,14,06,24,4.40
2010,04,14,06,25,4.30
2010,04,14,06,26,4.30
2010,04,14,06,27,4.20
2010,04,14,06,28,4.20
2010,04,14,06,29,4.10
2010,04,14,06,30,4.10
2010,04,14,06,31,4.10
2010,04,14,06,32,4.00
2010,04,14,06,33,4.00
2010,04,14,06,34,3.90
2010,04,14,06,35,3.90
2010,04,14,06,36,3.90
2010,04,14,06,37,3.80
2010,04,14,06,38,3.80
2010,04,14,06,39,3.80
2010,04,14,06,40,3.80
2010,04,14,06,41,3.80
2010,04,14,06,42,3.70
2010,04,14,06,43,3.70
2010,04,14,06,44,3.70
2010,04,14,06,45,3.70
2010,04,14,06,46,3.70
2010,04,14,06,47,3.70
2010,04,14,06,48,3.70
2010,04,14,06,49,3.80
2010,04,14,06,50,3.80
2010,04,14,06,51,3.80
2010,04,14,06,52,3.80
2010,04,14,06,53,3.80
2010,04,14,06,54,3.80
2010,04,14,06,55,3.80
2010,04,14,06,56,3.80
2010,04,14,06,57,3.80
2010,04,14,06,58,3.80
2010,04,14,06,59,3.80
2010,04,14,07,00,3.90
2010,04,14,07,01,3.90
2010,04,14,07,02,4.00
2010,04,14,07,03,4.00
2010,04,14,07,04,4.10
2010,04,14,07,05,4.10
2010,04,14,07,06,4.10
2010,04,14,07,07,4.20
2010,04,14,07,08,4.20
2010,04,14,07,09,4.20
2010,04,14,07,10,4.20
2010,04,14,07,11,4.20
2010,04,14,07,12,4.20
2010,04,14,07,13,4.30
2010,04,14,07,14,4.30
2010,04,14,07,15,4.30
2010,04,14,07,16,4.30
2010,04,14,07,17,4.30
2010,04,14,07,18,4.30
2010,04,14,07,19,4.40
2010,04,14,07,20,4.40
2010,04,14,07,21,4.40
2010,04,14,07,22,4.50
2010,04,14,07,23,4.50
2010,04,14,07,24,4.50
2010,04,14,07,25,4.60
2010,04,14,07,26,4.60
2010,04,14,07,27,4.60
2010,04,14,07,28,4.70
2010,04,14,07,29,4.70
2010,04,14,07,30,4.70
2010,04,14,07,31,4.70
2010,04,14,07,32,4.70
2010,04,14,07,33,4.70
2010,04,14,07,34,4.80
2010,04,14,07,35,4.80
2010,04,14,07,36,4.80
2010,04,14,07,37,4.80
2010,04,14,07,38,4.80
2010,04,14,07,39,4.80
2010,04,14,07,40,4.90
2010,04,14,07,41,4.90
2010,04,14,07,42,4.90
2010,04,14,07,43,4.90
2010,04,14,07,44,4.90
2010,04,14,07,45,5.00
2010,04,14,07,46,5.00
2010,04,14,07,47,5.10
2010,04,14,07,48,5.10
2010,04,14,07,49,5.10
2010,04,14,07,50,5.20
2010,04,14,07,51,5.20
2010,04,14,07,52,5.30
2010,04,14,07,53,5.30
2010,04,14,07,54,5.40
2010,04,14,07,55,5.40
2010,04,14,07,56,5.50
2010,04,14,07,57,5.50
2010,04,14,07,58,5.60
2010,04,14,07,59,5.60
2010,04,14,08,00,5.70
2010,04,14,08,01,5.70
2010,04,14,08,02,5.70
2010,04,14,08,03,5.70
2010,04,14,08,04,5.80
2010,04,14,08,05,5.80
2010,04,14,08,06,5.80
2010,04,14,08,07,5.80
2010,04,14,08,08,5.90
2010,04,14,08,09,5.90
2010,04,14,08,10,5.90
2010,04,14,08,11,6.00
2010,04,14,08,12,6.00
2010,04,14,08,13,6.00
2010,04,14,08,14,6.10
2010,04,14,08,15,6.10
2010,04,14,08,16,6.10
2010,04,14,08,17,6.10
2010,04,14,08,18,6.20
2010,04,14,08,19,6.20
2010,04,14,08,20,6.20
2010,04,14,08,21,6.30
2010,04,14,08,22,6.30
2010,04,14,08,23,6.30
2010,04,14,08,24,6.30
2010,04,14,08,25,6.40
2010,04,14,08,26,6.40
2010,04,14,08,27,6.50
2010,04,14,08,28,6.50
2010,04,14,08,29,6.60
2010,04,14,08,30,6.60
2010,04,14,08,31,6.70
2010,04,14,08,32,6.70
2010,04,14,08,33,6.70
2010,04,14,08,34,6.80
2010,04,14,08,35,6.80
2010,04,14,08,36,6.90
2010,04,14,08,37,6.90
2010,04,14,08,38,7.00
2010,04,14,08,39,7.00
2010,04,14,08,40,7.00
2010,04,14,08,41,7.10
2010,04,14,08,42,7.10
2010,04,14,08,43,7.20
2010,04,14,08,44,7.20
2010,04,14,08,45,7.20
2010,04,14,08,46,7.20
2010,04,14,08,47,7.30
2010,04,14,08,48,7.30
2010,04,14,08,49,7.30
2010,04,14,08,50,7.40
2010,04,14,08,51,7.40
2010,04,14,08,52,7.40
2010,04,14,08,53,7.50
2010,04,14,08,54,7.60
2010,04,14,08,55,7.60
2010,04,14,08,56,7.60
2010,04,14,08,57,7.70
2010,04,14,08,58,7.70
2010,04,14,08,59,7.80
2010,04,14,09,00,7.80
2010,04,14,09,01,7.90
2010,04,14,09,02,7.90
2010,04,14,09,03,8.00
2010,04,14,09,04,8.00
2010,04,14,09,05,8.10
2010,04,14,09,06,8.10
2010,04,14,09,07,8.10
2010,04,14,09,08,8.20
2010,04,14,09,09,8.20
2010,04,14,09,10,8.20
2010,04,14,09,11,8.20
2010,04,14,09,12,8.30
2010,04,14,09,13,8.30
2010,04,14,09,14,8.30
2010,04,14,09,15,8.40
2010,04,14,09,16,8.40
2010,04,14,09,17,8.40
2010,04,14,09,18,8.50
2010,04,14,09,19,8.60
2010,04,14,09,20,8.60
2010,04,14,09,21,8.60
2010,04,14,09,22,8.70
2010,04,14,09,23,8.70
2010,04,14,09,24,8.70
2010,04,14,09,25,8.80
2010,04,14,09,26,8.80
2010,04,14,09,27,8.80
2010,04,14,09,28,8.80
2010,04,14,09,29,8.90
2010,04,14,09,30,8.90
2010,04,14,09,31,8.90
2010,04,14,09,32,8.90
2010,04,14,09,33,9.00
2010,04,14,09,34,9.00
2010,04,14,09,35,9.10
2010,04,14,09,36,9.10
2010,04,14,09,37,9.20
2010,04,14,09,38,9.20
2010,04,14,09,39,9.20
2010,04,14,09,40,9.30
2010,04,14,09,41,9.40
2010,04,14,09,42,9.40
2010,04,14,09,43,9.40
2010,04,14,09,44,9.50
2010,04,14,09,45,9.50
2010,04,14,09,46,9.60
2010,04,14,09,47,9.60
2010,04,14,09,48,9.60
2010,04,14,09,49,9.70
2010,04,14,09,50,9.70
2010,04,14,09,51,9.70
2010,04,14,09,52,9.80
2010,04,14,09,53,9.80
2010,04,14,09,54,9.80
2010,04,14,09,55,9.80
2010,04,14,09,56,9.90
2010,04,14,09,57,9.90
2010,04,14,09,58,9.90
2010,04,14,09,59,10.00
2010,04,14,10,00,10.00
2010,04,14,10,01,10.00
2010,04,14,10,02,10.00
2010,04,14,10,03,10.10
2010,04,14,10,04,10.10
2010,04,14,10,05,10.10
2010,04,14,10,06,10.10
2010,04,14,10,07,10.20
2010,04,14,10,08,10.20
2010,04,14,10,09,10.20
2010,04,14,10,10,10.20
2010,04,14,10,11,10.20
2010,04,14,10,12,10.20
2010,04,14,10,13,10.20
2010,04,14,10,14,10.20
2010,04,14,10,15,10.20
2010,04,14,10,16,10.20
2010,04,14,10,17,10.20
2010,04,14,10,18,10.30
2010,04,14,10,19,10.30
2010,04,14,10,20,10.30
2010,04,14,10,21,10.30
2010,04,14,10,22,10.30
2010,04,14,10,23,10.30
2010,04,14,10,24,10.30
2010,04,14,10,25,10.30
2010,04,14,10,26,10.30
2010,04,14,10,27,10.20
2010,04,14,10,28,10.20
2010,04,14,10,29,10.10
2010,04,14,10,30,10.10
2010,04,14,10,31,10.00
2010,04,14,10,32,9.90
2010,04,14,10,33,9.90
2010,04,14,10,34,9.90
2010,04,14,10,35,9.80
2010,04,14,10,36,9.80
2010,04,14,10,37,9.80
2010,04,14,10,38,9.80
2010,04,14,10,39,9.80
2010,04,14,10,40,9.80
2010,04,14,10,41,9.80
2010,04,14,10,42,9.80
2010,04,14,10,43,9.80
2010,04,14,10,44,9.80
2010,04,14,10,45,9.80
2010,04,14,10,46,9.80
2010,04,14,10,47,9.90
2010,04,14,10,48,9.90
2010,04,14,10,49,9.90
2010,04,14,10,50,9.90
2010,04,14,10,51,9.90
2010,04,14,10,52,9.90
2010,04,14,10,53,10.00
2010,04,14,10,54,10.00
2010,04,14,10,55,10.10
2010,04,14,10,56,10.10
2010,04,14,10,57,10.20
2010,04,14,10,58,10.20
2010,04,14,10,59,10.30
2010,04,14,11,00,10.30
2010,04,14,11,01,10.40
2010,04,14,11,02,10.50
2010,04,14,11,03,10.50
2010,04,14,11,04,10.60
2010,04,14,11,05,10.70
2010,04,14,11,06,10.80
2010,04,14,11,07,10.80
2010,04,14,11,08,10.90
2010,04,14,11,09,11.00
2010,04,14,11,10,11.00
2010,04,14,11,11,11.10
2010,04,14,11,12,11.10
2010,04,14,11,13,11.10
2010,04,14,11,14,11.10
2010,04,14,11,15,11.10
2010,04,14,11,16,11.10
2010,04,14,11,17,11.10
2010,04,14,11,18,11.10
2010,04,14,11,19,11.10
2010,04,14,11,20,11.20
2010,04,14,11,21,11.20
2010,04,14,11,22,11.20
2010,04,14,11,23,11.20
2010,04,14,11,24,11.30
2010,04,14,11,25,11.40
2010,04,14,11,26,11.40
2010,04,14,11,27,11.40
2010,04,14,11,28,11.50
2010,04,14,11,29,11.40
2010,04,14,11,30,11.40
2010,04,14,11,31,11.40
2010,04,14,11,32,11.40
2010,04,14,11,33,11.50
2010,04,14,11,34,11.50
2010,04,14,11,35,11.50
2010,04,14,11,36,11.60
2010,04,14,11,37,11.60
2010,04,14,11,38,11.60
2010,04,14,11,39,11.70
2010,04,14,11,40,11.70
2010,04,14,11,41,11.70
2010,04,14,11,42,11.70
2010,04,14,11,43,11.60
2010,04,14,11,44,11.60
2010,04,14,11,45,11.60
2010,04,14,11,46,11.60
2010,04,14,11,47,11.60
2010,04,14,11,48,11.60
2010,04,14,11,49,11.50
2010,04,14,11,50,11.40
2010,04,14,11,51,11.30
2010,04,14,11,52,11.20
2010,04,14,11,53,11.20
2010,04,14,11,54,11.10
2010,04,14,11,55,11.10
2010,04,14,11,56,11.10
2010,04,14,11,57,11.00
2010,04,14,11,58,11.00
2010,04,14,11,59,11.00
2010,04,14,12,00,11.00
2010,04,14,12,01,11.10
2010,04,14,12,02,11.20
2010,04,14,12,03,11.30
2010,04,14,12,04,11.30
2010,04,14,12,05,11.30
2010,04,14,12,06,11.30
2010,04,14,12,07,11.40
2010,04,14,12,08,11.40
2010,04,14,12,09,11.50
2010,04,14,12,10,11.50
2010,04,14,12,11,11.60
2010,04,14,12,12,11.60
2010,04,14,12,13,11.70
2010,04,14,12,14,11.80
2010,04,14,12,15,11.80
2010,04,14,12,16,11.90
2010,04,14,12,17,11.90
2010,04,14,12,18,11.90
2010,04,14,12,19,12.00
2010,04,14,12,20,12.10
2010,04,14,12,21,12.30
2010,04,14,12,22,12.40
2010,04,14,12,23,12.40
2010,04,14,12,24,12.20
2010,04,14,12,25,12.20
2010,04,14,12,26,12.10
2010,04,14,12,27,12.10
2010,04,14,12,28,12.10
2010,04,14,12,29,12.10
2010,04,14,12,30,12.10
2010,04,14,12,31,12.00
2010,04,14,12,32,11.90
2010,04,14,12,33,11.80
2010,04,14,12,34,11.90
2010,04,14,12,35,11.90
2010,04,14,12,36,11.90
2010,04,14,12,37,11.90
2010,04,14,12,38,12.00
2010,04,14,12,39,12.10
2010,04,14,12,40,12.20
2010,04,14,12,41,12.30
2010,04,14,12,42,12.30
2010,04,14,12,43,12.30
2010,04,14,12,44,12.30
2010,04,14,12,45,12.30
2010,04,14,12,46,12.30
2010,04,14,12,47,12.20
2010,04,14,12,48,12.20
2010,04,14,12,49,12.20
2010,04,14,12,50,12.20
2010,04,14,12,51,12.20
2010,04,14,12,52,12.10
2010,04,14,12,53,12.20
2010,04,14,12,54,12.20
2010,04,14,12,55,12.10
2010,04,14,12,56,12.10
2010,04,14,12,57,12.10
2010,04,14,12,58,12.20
2010,04,14,12,59,12.20
2010,04,14,13,00,12.10
2010,04,14,13,01,12.00
2010,04,14,13,02,11.90
2010,04,14,13,03,11.90
2010,04,14,13,04,11.80
2010,04,14,13,05,11.80
2010,04,14,13,06,11.90
2010,04,14,13,07,11.90
2010,04,14,13,08,12.00
2010,04,14,13,09,12.00
2010,04,14,13,10,12.20
2010,04,14,13,11,12.40
2010,04,14,13,12,12.60
2010,04,14,13,13,12.70
2010,04,14,13,14,12.70
2010,04,14,13,15,12.70
2010,04,14,13,16,12.70
2010,04,14,13,17,12.70
2010,04,14,13,18,12.60
2010,04,14,13,19,12.60
2010,04,14,13,20,12.50
2010,04,14,13,21,12.40
2010,04,14,13,22,12.30
2010,04,14,13,23,12.30
2010,04,14,13,24,12.30
2010,04,14,13,25,12.40
2010,04,14,13,26,12.40
2010,04,14,13,27,12.40
2010,04,14,13,28,12.40
2010,04,14,13,29,12.30
2010,04,14,13,30,12.40
2010,04,14,13,31,12.40
2010,04,14,13,32,12.50
2010,04,14,13,33,12.70
2010,04,14,13,34,12.80
2010,04,14,13,35,12.80
2010,04,14,13,36,12.80
2010,04,14,13,37,12.70
2010,04,14,13,38,12.70
2010,04,14,13,39,12.70
2010,04,14,13,40,12.70
2010,04,14,13,41,12.80
2010,04,14,13,42,12.80
2010,04,14,13,43,12.70
2010,04,14,13,44,12.60
2010,04,14,13,45,12.60
2010,04,14,13,46,12.60
2010,04,14,13,47,12.60
2010,04,14,13,48,12.60
2010,04,14,13,49,12.60
2010,04,14,13,50,12.70
2010,04,14,13,51,12.80
2010,04,14,13,52,12.80
2010,04,14,13,53,12.80
2010,04,14,13,54,12.90
2010,04,14,13,55,13.00
2010,04,14,13,56,13.10
2010,04,14,13,57,13.20
2010,04,14,13,58,13.20
2010,04,14,13,59,13.30
2010,04,14,14,00,13.30
2010,04,14,14,01,13.30
2010,04,14,14,02,13.40
2010,04,14,14,03,13.50
2010,04,14,14,04,13.60
2010,04,14,14,05,13.70
2010,04,14,14,06,13.90
2010,04,14,14,07,13.90
2010,04,14,14,08,14.00
2010,04,14,14,09,14.00
2010,04,14,14,10,14.00
2010,04,14,14,11,13.90
2010,04,14,14,12,14.00
2010,04,14,14,13,14.00
2010,04,14,14,14,14.00
2010,04,14,14,15,13.90
2010,04,14,14,16,13.80
2010,04,14,14,17,13.70
2010,04,14,14,18,13.70
2010,04,14,14,19,13.70
2010,04,14,14,20,13.70
2010,04,14,14,21,13.70
2010,04,14,14,22,13.60
2010,04,14,14,23,13.60
2010,04,14,14,24,13.60
2010,04,14,14,25,13.60
2010,04,14,14,26,13.60
2010,04,14,14,27,13.60
2010,04,14,14,28,13.60
2010,04,14,14,29,13.60
2010,04,14,14,30,13.60
2010,04,14,14,31,13.60
2010,04,14,14,32,13.70
2010,04,14,14,33,13.80
2010,04,14,14,34,13.80
2010,04,14,14,35,13.80
2010,04,14,14,36,13.70
2010,04,14,14,37,13.70
2010,04,14,14,38,13.80
2010,04,14,14,39,13.80
2010,04,14,14,40,13.90
2010,04,14,14,41,13.90
2010,04,14,14,42,14.00
2010,04,14,14,43,14.00
2010,04,14,14,44,14.10
2010,04,14,14,45,14.20
2010,04,14,14,46,14.30
2010,04,14,14,47,14.30
2010,04,14,14,48,14.30
2010,04,14,14,49,14.30
2010,04,14,14,50,14.30
2010,04,14,14,51,14.40
2010,04,14,14,52,14.50
2010,04,14,14,53,14.50
2010,04,14,14,54,14.40
2010,04,14,14,55,14.40
2010,04,14,14,56,14.40
2010,04,14,14,57,14.40
2010,04,14,14,58,14.40
2010,04,14,14,59,14.50
2010,04,14,15,00,14.60
2010,04,14,15,01,14.80
2010,04,14,15,02,14.90
2010,04,14,15,03,15.00
2010,04,14,15,04,14.90
2010,04,14,15,05,14.80
2010,04,14,15,06,14.70
2010,04,14,15,07,14.60
2010,04,14,15,08,14.50
2010,04,14,15,09,14.40
2010,04,14,15,10,14.30
2010,04,14,15,11,14.30
2010,04,14,15,12,14.30
2010,04,14,15,13,14.30
2010,04,14,15,14,14.40
2010,04,14,15,15,14.40
2010,04,14,15,16,14.40
2010,04,14,15,17,14.40
2010,04,14,15,18,14.30
2010,04,14,15,19,14.30
2010,04,14,15,20,14.40
2010,04,14,15,21,14.40
2010,04,14,15,22,14.30
2010,04,14,15,23,14.30
2010,04,14,15,24,14.30
2010,04,14,15,25,14.20
2010,04,14,15,26,14.20
2010,04,14,15,27,14.20
2010,04,14,15,28,14.10
2010,04,14,15,29,14.00
2010,04,14,15,30,13.90
2010,04,14,15,31,13.90
2010,04,14,15,32,13.90
2010,04,14,15,33,13.80
2010,04,14,15,34,13.80
2010,04,14,15,35,13.80
2010,04,14,15,36,13.80
2010,04,14,15,37,13.70
2010,04,14,15,38,13.60
2010,04,14,15,39,13.60
2010,04,14,15,40,13.50
2010,04,14,15,41,13.50
2010,04,14,15,42,13.60
2010,04,14,15,43,13.70
2010,04,14,15,44,13.70
2010,04,14,15,45,13.70
2010,04,14,15,46,13.80
2010,04,14,15,47,13.90
2010,04,14,15,48,14.00
2010,04,14,15,49,14.10
2010,04,14,15,50,14.20
2010,04,14,15,51,14.30
2010,04,14,15,52,14.40
2010,04,14,15,53,14.50
2010,04,14,15,54,14.60
2010,04,14,15,55,14.60
2010,04,14,15,56,14.70
2010,04,14,15,57,14.80
2010,04,14,15,58,14.80
2010,04,14,15,59,14.80
2010,04,14,16,00,14.80
2010,04,14,16,01,14.80
2010,04,14,16,02,14.70
2010,04,14,16,03,14.60
2010,04,14,16,04,14.50
2010,04,14,16,05,14.50
2010,04,14,16,06,14.50
2010,04,14,16,07,14.50
2010,04,14,16,08,14.50
2010,04,14,16,09,14.60
2010,04,14,16,10,14.60
2010,04,14,16,11,14.50
2010,04,14,16,12,14.40
2010,04,14,16,13,14.30
2010,04,14,16,14,14.30
2010,04,14,16,15,14.30
2010,04,14,16,16,14.30
2010,04,14,16,17,14.40
2010,04,14,16,18,14.40
2010,04,14,16,19,14.40
2010,04,14,16,20,14.40
2010,04,14,16,21,14.30
2010,04,14,16,22,14.30
2010,04,14,16,23,14.30
2010,04,14,16,24,14.40
2010,04,14,16,25,14.40
2010,04,14,16,26,14.50
2010,04,14,16,27,14.40
2010,04,14,16,28,14.40
2010,04,14,16,29,14.30
2010,04,14,16,30,14.30
2010,04,14,16,31,14.30
2010,04,14,16,32,14.20
2010,04,14,16,33,14.20
2010,04,14,16,34,14.20
2010,04,14,16,35,14.20
2010,04,14,16,36,14.20
2010,04,14,16,37,14.20
2010,04,14,16,38,14.30
2010,04,14,16,39,14.40
2010,04,14,16,40,14.50
2010,04,14,16,41,14.60
2010,04,14,16,42,14.70
2010,04,14,16,43,14.80
2010,04,14,16,44,14.70
2010,04,14,16,45,14.60
2010,04,14,16,46,14.60
2010,04,14,16,47,14.60
2010,04,14,16,48,14.60
2010,04,14,16,49,14.70
2010,04,14,16,50,14.80
2010,04,14,16,51,14.90
2010,04,14,16,52,14.90
2010,04,14,16,53,14.90
2010,04,14,16,54,14.80
2010,04,14,16,55,14.70
2010,04,14,16,56,14.60
2010,04,14,16,57,14.60
2010,04,14,16,58,14.60
2010,04,14,16,59,14.50
2010,04,14,17,00,14.50
2010,04,14,17,01,14.60
2010,04,14,17,02,14.60
2010,04,14,17,03,14.60
2010,04,14,17,04,14.60
2010,04,14,17,05,14.60
2010,04,14,17,06,14.60
2010,04,14,17,07,14.60
2010,04,14,17,08,14.70
2010,04,14,17,09,14.60
2010,04,14,17,10,14.60
2010,04,14,17,11,14.50
2010,04,14,17,12,14.40
2010,04,14,17,13,14.30
2010,04,14,17,14,14.30
2010,04,14,17,15,14.20
2010,04,14,17,16,14.20
2010,04,14,17,17,14.20
2010,04,14,17,18,14.10
2010,04,14,17,19,14.10
2010,04,14,17,20,14.10
2010,04,14,17,21,14.00
2010,04,14,17,22,14.00
2010,04,14,17,23,13.90
2010,04,14,17,24,13.90
2010,04,14,17,25,14.00
2010,04,14,17,26,14.00
2010,04,14,17,27,14.00
2010,04,14,17,28,14.00
2010,04,14,17,29,14.10
2010,04,14,17,30,14.20
2010,04,14,17,31,14.20
2010,04,14,17,32,14.30
2010,04,14,17,33,14.30
2010,04,14,17,34,14.40
2010,04,14,17,35,14.30
2010,04,14,17,36,14.30
2010,04,14,17,37,14.20
2010,04,14,17,38,14.20
2010,04,14,17,39,14.20
2010,04,14,17,40,14.20
2010,04,14,17,41,14.20
2010,04,14,17,42,14.30
2010,04,14,17,43,14.30
2010,04,14,17,44,14.30
2010,04,14,17,45,14.30
2010,04,14,17,46,14.30